Time,TemperatureF,DewpointF,PressureIn,WindDirection,WindDirectionDegrees,WindSpeedMPH,WindSpeedGustMPH,Humidity,HourlyPrecipIn,Conditions,Clouds,dailyrainin,SoftwareType,DateUTC
2013-01-21 00:04:00,43.0,32.0,-100.00,ENE,75,0.0,0.0,66,-99.99,,,-99.99,,2013-01-21 05:04:00,
2013-01-21 00:13:00,42.0,33.0,-100.00,SW,225,0.0,1.0,69,-99.99,,,-99.99,,2013-01-21 05:13:00,
2013-01-21 00:22:00,42.0,33.0,-100.00,SW,225,0.0,0.0,71,-99.99,,,-99.99,,2013-01-21 05:22:00,
2013-01-21 00:42:00,41.0,34.0,-100.00,NNW,330,0.0,1.0,74,-99.99,,,-99.99,,2013-01-21 05:42:00,
2013-01-21 00:52:00,42.0,34.0,-100.00,WSW,250,0.0,1.0,75,-99.99,,,-99.99,,2013-01-21 05:52:00,
2013-01-21 01:03:00,41.0,34.0,-100.00,SW,225,0.0,0.0,76,-99.99,,,-99.99,,2013-01-21 06:03:00,
2013-01-21 01:13:00,41.0,34.0,-100.00,NNE,20,1.0,1.0,78,-99.99,,,-99.99,,2013-01-21 06:13:00,
2013-01-21 01:23:00,40.0,35.0,-100.00,WNW,285,0.0,1.0,80,-99.99,,,-99.99,,2013-01-21 06:23:00,
2013-01-21 01:33:00,40.0,34.0,-100.00,SSE,160,0.0,1.0,81,-99.99,,,-99.99,,2013-01-21 06:33:00,
2013-01-21 01:43:00,39.0,35.0,-100.00,SSE,160,0.0,0.0,84,-99.99,,,-99.99,,2013-01-21 06:43:00,
2013-01-21 01:52:00,39.0,35.0,-100.00,SSE,160,0.0,0.0,86,-99.99,,,-99.99,,2013-01-21 06:52:00,
2013-01-21 02:03:00,39.0,35.0,-100.00,SW,235,0.0,1.0,88,-99.99,,,-99.99,,2013-01-21 07:03:00,
2013-01-21 02:13:00,38.0,36.0,-100.00,SW,235,0.0,0.0,89,-99.99,,,-99.99,,2013-01-21 07:13:00,
2013-01-21 02:23:00,38.0,36.0,-100.00,SSW,205,0.0,0.0,91,-99.99,,,-99.99,,2013-01-21 07:23:00,
2013-01-21 02:33:00,38.0,35.0,-100.00,SE,130,0.0,0.0,91,-99.99,,,-99.99,,2013-01-21 07:33:00,
2013-01-21 02:42:00,37.0,35.0,-100.00,NNE,30,0.0,1.0,92,-99.99,,,-99.99,,2013-01-21 07:42:00,
2013-01-21 02:52:00,37.0,36.0,-100.00,NNE,30,0.0,1.0,93,-99.99,,,-99.99,,2013-01-21 07:52:00,
2013-01-21 03:03:00,37.0,36.0,-100.00,SW,235,1.0,1.0,94,-99.99,,,-99.99,,2013-01-21 08:03:00,
2013-01-21 03:14:00,37.0,36.0,-100.00,West,260,0.0,1.0,96,-99.99,,,-99.99,,2013-01-21 08:14:00,
2013-01-21 03:23:00,36.0,36.0,-100.00,West,260,0.0,0.0,97,-99.99,,,-99.99,,2013-01-21 08:23:00,
2013-01-21 03:33:00,36.0,36.0,-100.00,West,260,0.0,0.0,98,-99.99,,,-99.99,,2013-01-21 08:33:00,
2013-01-21 03:42:00,36.0,36.0,-100.00,West,260,0.0,0.0,99,-99.99,,,-99.99,,2013-01-21 08:42:00,
2013-01-21 03:53:00,36.0,36.0,-100.00,West,260,0.0,0.0,99,-99.99,,,-99.99,,2013-01-21 08:53:00,
2013-01-21 04:03:00,36.0,36.0,-100.00,West,275,0.0,2.0,99,-99.99,,,-99.99,,2013-01-21 09:03:00,
2013-01-21 04:12:00,36.0,36.0,-100.00,South,190,0.0,1.0,99,-99.99,,,-99.99,,2013-01-21 09:12:00,
2013-01-21 04:23:00,36.0,36.0,-100.00,South,175,0.0,1.0,99,-99.99,,,-99.99,,2013-01-21 09:23:00,
2013-01-21 04:33:00,36.0,36.0,-100.00,South,175,0.0,0.0,99,-99.99,,,-99.99,,2013-01-21 09:33:00,
2013-01-21 04:42:00,35.0,35.0,-100.00,South,175,0.0,1.0,99,-99.99,,,-99.99,,2013-01-21 09:42:00,
2013-01-21 04:53:00,35.0,35.0,-100.00,South,175,0.0,1.0,99,-99.99,,,-99.99,,2013-01-21 09:53:00,
2013-01-21 05:03:00,35.0,35.0,-100.00,SE,140,0.0,1.0,99,-99.99,,,-99.99,,2013-01-21 10:03:00,
2013-01-21 05:12:00,35.0,35.0,-100.00,West,265,0.0,2.0,99,-99.99,,,-99.99,,2013-01-21 10:12:00,
2013-01-21 05:22:00,35.0,35.0,-100.00,West,275,0.0,2.0,99,-99.99,,,-99.99,,2013-01-21 10:22:00,
2013-01-21 05:33:00,35.0,35.0,-100.00,NW,315,1.0,4.0,99,-99.99,,,-99.99,,2013-01-21 10:33:00,
2013-01-21 05:43:00,35.0,35.0,-100.00,NNE,30,1.0,4.0,99,-99.99,,,-99.99,,2013-01-21 10:43:00,
2013-01-21 05:52:00,35.0,35.0,-100.00,NNE,25,0.0,1.0,99,-99.99,,,-99.99,,2013-01-21 10:52:00,
2013-01-21 06:03:00,35.0,35.0,-100.00,NE,45,0.0,1.0,99,-99.99,,,-99.99,,2013-01-21 11:03:00,
2013-01-21 06:13:00,35.0,35.0,-100.00,North,10,0.0,1.0,99,-99.99,,,-99.99,,2013-01-21 11:13:00,
2013-01-21 06:23:00,35.0,34.0,-100.00,WSW,245,0.0,1.0,99,-99.99,,,-99.99,,2013-01-21 11:23:00,
2013-01-21 06:33:00,34.0,34.0,-100.00,WNW,285,0.0,1.0,99,-99.99,,,-99.99,,2013-01-21 11:33:00,
2013-01-21 06:43:00,34.0,34.0,-100.00,SSE,165,0.0,1.0,99,-99.99,,,-99.99,,2013-01-21 11:43:00,
2013-01-21 06:53:00,34.0,34.0,-100.00,SSE,165,0.0,1.0,99,-99.99,,,-99.99,,2013-01-21 11:53:00,
2013-01-21 07:03:00,33.0,33.0,-100.00,SW,235,0.0,0.0,99,-99.99,,,-99.99,,2013-01-21 12:03:00,
2013-01-21 07:12:00,33.0,32.0,-100.00,SW,220,0.0,0.0,99,-99.99,,,-99.99,,2013-01-21 12:12:00,
2013-01-21 07:22:00,33.0,33.0,-100.00,SW,220,0.0,0.0,99,-99.99,,,-99.99,,2013-01-21 12:22:00,
2013-01-21 07:33:00,33.0,33.0,-100.00,SW,220,0.0,0.0,99,-99.99,,,-99.99,,2013-01-21 12:33:00,
2013-01-21 07:42:00,33.0,33.0,-100.00,SW,220,0.0,0.0,99,-99.99,,,-99.99,,2013-01-21 12:42:00,
2013-01-21 07:52:00,33.0,32.0,-100.00,WSW,245,0.0,1.0,99,-99.99,,,-99.99,,2013-01-21 12:52:00,
2013-01-21 08:03:00,33.0,32.0,-100.00,WSW,250,0.0,1.0,99,-99.99,,,-99.99,,2013-01-21 13:03:00,
2013-01-21 08:13:00,33.0,32.0,-100.00,WSW,250,0.0,1.0,99,-99.99,,,-99.99,,2013-01-21 13:13:00,
2013-01-21 08:23:00,33.0,33.0,-100.00,WSW,250,0.0,1.0,99,-99.99,,,-99.99,,2013-01-21 13:23:00,
2013-01-21 08:33:00,33.0,33.0,-100.00,SW,220,0.0,0.0,99,-99.99,,,-99.99,,2013-01-21 13:33:00,
2013-01-21 08:43:00,34.0,34.0,-100.00,West,270,1.0,2.0,99,-99.99,,,-99.99,,2013-01-21 13:43:00,
2013-01-21 08:53:00,36.0,36.0,-100.00,West,260,0.0,1.0,99,-99.99,,,-99.99,,2013-01-21 13:53:00,
2013-01-21 09:04:00,38.0,38.0,-100.00,West,260,0.0,1.0,98,-99.99,,,-99.99,,2013-01-21 14:04:00,
2013-01-21 09:13:00,39.0,37.0,-100.00,West,260,0.0,0.0,91,-99.99,,,-99.99,,2013-01-21 14:13:00,
2013-01-21 09:23:00,41.0,37.0,-100.00,NW,305,0.0,1.0,86,-99.99,,,-99.99,,2013-01-21 14:23:00,
2013-01-21 09:33:00,44.0,39.0,-100.00,NNW,335,0.0,1.0,82,-99.99,,,-99.99,,2013-01-21 14:33:00,
2013-01-21 09:43:00,45.0,38.0,-100.00,WSW,245,1.0,1.0,75,-99.99,,,-99.99,,2013-01-21 14:43:00,
2013-01-21 09:53:00,45.0,36.0,-100.00,SW,235,2.0,3.0,71,-99.99,,,-99.99,,2013-01-21 14:53:00,
2013-01-21 10:03:00,47.0,36.0,-100.00,WNW,295,1.0,4.0,67,-99.99,,,-99.99,,2013-01-21 15:03:00,
2013-01-21 10:13:00,49.0,35.0,-100.00,NW,325,2.0,4.0,59,-99.99,,,-99.99,,2013-01-21 15:13:00,
2013-01-21 10:23:00,51.0,35.0,-100.00,NNW,335,0.0,3.0,56,-99.99,,,-99.99,,2013-01-21 15:23:00,
2013-01-21 10:33:00,53.0,35.0,-100.00,WNW,295,0.0,4.0,51,-99.99,,,-99.99,,2013-01-21 15:33:00,
2013-01-21 10:43:00,53.0,34.0,-100.00,South,190,1.0,3.0,48,-99.99,,,-99.99,,2013-01-21 15:43:00,
2013-01-21 10:53:00,53.0,32.0,-100.00,SW,215,1.0,3.0,45,-99.99,,,-99.99,,2013-01-21 15:53:00,
2013-01-21 11:04:00,56.0,33.0,-100.00,West,260,1.0,3.0,43,-99.99,,,-99.99,,2013-01-21 16:04:00,
2013-01-21 11:13:00,58.0,33.0,-100.00,West,275,1.0,4.0,40,-99.99,,,-99.99,,2013-01-21 16:13:00,
2013-01-21 11:23:00,59.0,33.0,-100.00,North,5,1.0,5.0,38,-99.99,,,-99.99,,2013-01-21 16:23:00,
2013-01-21 11:33:00,58.0,32.0,-100.00,West,280,1.0,4.0,37,-99.99,,,-99.99,,2013-01-21 16:33:00,
2013-01-21 11:43:00,58.0,31.0,-100.00,WSW,240,2.0,4.0,37,-99.99,,,-99.99,,2013-01-21 16:43:00,
2013-01-21 11:53:00,60.0,32.0,-100.00,NW,315,1.0,4.0,35,-99.99,,,-99.99,,2013-01-21 16:53:00,
2013-01-21 12:03:00,59.0,32.0,-100.00,North,0,1.0,4.0,35,-99.99,,,-99.99,,2013-01-21 17:03:00,
2013-01-21 12:13:00,59.0,32.0,-100.00,West,265,1.0,4.0,35,-99.99,,,-99.99,,2013-01-21 17:13:00,
2013-01-21 12:23:00,62.0,33.0,-100.00,WSW,240,1.0,4.0,34,-99.99,,,-99.99,,2013-01-21 17:23:00,
2013-01-21 12:33:00,62.0,32.0,-100.00,WSW,255,3.0,6.0,33,-99.99,,,-99.99,,2013-01-21 17:33:00,
2013-01-21 12:43:00,61.0,32.0,-100.00,NNW,345,2.0,9.0,33,-99.99,,,-99.99,,2013-01-21 17:43:00,
2013-01-21 12:53:00,63.0,33.0,-100.00,WSW,240,1.0,6.0,32,-99.99,,,-99.99,,2013-01-21 17:53:00,
2013-01-21 13:03:00,63.0,32.0,-100.00,West,260,5.0,7.0,31,-99.99,,,-99.99,,2013-01-21 18:03:00,
2013-01-21 13:12:00,65.0,32.0,-100.00,WSW,240,4.0,8.0,30,-99.99,,,-99.99,,2013-01-21 18:12:00,
2013-01-21 13:23:00,63.0,30.0,-100.00,WNW,300,4.0,10.0,29,-99.99,,,-99.99,,2013-01-21 18:23:00,
2013-01-21 13:33:00,64.0,30.0,-100.00,NNW,330,4.0,8.0,28,-99.99,,,-99.99,,2013-01-21 18:33:00,
2013-01-21 13:43:00,64.0,31.0,-100.00,SSW,210,2.0,10.0,29,-99.99,,,-99.99,,2013-01-21 18:43:00,
2013-01-21 13:52:00,63.0,31.0,-100.00,West,275,4.0,13.0,29,-99.99,,,-99.99,,2013-01-21 18:52:00,
2013-01-21 14:03:00,64.0,31.0,-100.00,WSW,240,2.0,11.0,29,-99.99,,,-99.99,,2013-01-21 19:03:00,
2013-01-21 14:13:00,64.0,31.0,-100.00,West,275,9.0,21.0,29,-99.99,,,-99.99,,2013-01-21 19:13:00,
2013-01-21 14:22:00,63.0,31.0,-100.00,West,275,6.0,16.0,29,-99.99,,,-99.99,,2013-01-21 19:22:00,
2013-01-21 14:33:00,64.0,31.0,-100.00,West,280,6.0,13.0,29,-99.99,,,-99.99,,2013-01-21 19:33:00,
2013-01-21 14:43:00,63.0,31.0,-100.00,West,280,9.0,23.0,29,-99.99,,,-99.99,,2013-01-21 19:43:00,
2013-01-21 14:53:00,62.0,29.0,-100.00,NW,320,9.0,19.0,29,-99.99,,,-99.99,,2013-01-21 19:53:00,
2013-01-21 15:03:00,62.0,30.0,-100.00,WNW,295,7.0,18.0,29,-99.99,,,-99.99,,2013-01-21 20:03:00,
2013-01-21 15:12:00,62.0,29.0,-100.00,West,275,10.0,16.0,29,-99.99,,,-99.99,,2013-01-21 20:12:00,
2013-01-21 15:23:00,62.0,29.0,-100.00,WSW,250,9.0,19.0,29,-99.99,,,-99.99,,2013-01-21 20:23:00,
2013-01-21 15:33:00,62.0,29.0,-100.00,WSW,250,9.0,19.0,29,-99.99,,,-99.99,,2013-01-21 20:33:00,
2013-01-21 15:43:00,62.0,30.0,-100.00,West,275,11.0,18.0,30,-99.99,,,-99.99,,2013-01-21 20:43:00,
2013-01-21 15:53:00,62.0,30.0,-100.00,West,275,11.0,18.0,30,-99.99,,,-99.99,,2013-01-21 20:53:00,
2013-01-21 16:04:00,62.0,30.0,-100.00,West,275,6.0,14.0,29,-99.99,,,-99.99,,2013-01-21 21:04:00,
2013-01-21 16:12:00,62.0,30.0,-100.00,West,265,8.0,21.0,30,-99.99,,,-99.99,,2013-01-21 21:12:00,
2013-01-21 16:23:00,62.0,30.0,-100.00,West,270,6.0,14.0,30,-99.99,,,-99.99,,2013-01-21 21:23:00,
2013-01-21 16:33:00,62.0,30.0,-100.00,WNW,295,7.0,20.0,30,-99.99,,,-99.99,,2013-01-21 21:33:00,
2013-01-21 16:43:00,61.0,30.0,-100.00,WNW,300,11.0,24.0,31,-99.99,,,-99.99,,2013-01-21 21:43:00,
2013-01-21 16:53:00,60.0,30.0,-100.00,West,265,13.0,26.0,32,-99.99,,,-99.99,,2013-01-21 21:53:00,
2013-01-21 17:03:00,60.0,30.0,-100.00,West,265,9.0,20.0,32,-99.99,,,-99.99,,2013-01-21 22:03:00,
2013-01-21 17:13:00,59.0,29.0,-100.00,West,265,11.0,21.0,32,-99.99,,,-99.99,,2013-01-21 22:13:00,
2013-01-21 17:23:00,58.0,29.0,-100.00,WNW,285,10.0,21.0,32,-99.99,,,-99.99,,2013-01-21 22:23:00,
2013-01-21 17:33:00,58.0,28.0,-100.00,West,260,9.0,23.0,32,-99.99,,,-99.99,,2013-01-21 22:33:00,
2013-01-21 17:43:00,57.0,27.0,-100.00,WNW,300,9.0,26.0,32,-99.99,,,-99.99,,2013-01-21 22:43:00,
2013-01-21 17:52:00,57.0,27.0,-100.00,WNW,300,9.0,26.0,32,-99.99,,,-99.99,,2013-01-21 22:52:00,
2013-01-21 18:03:00,56.0,26.0,-100.00,WNW,285,7.0,17.0,32,-99.99,,,-99.99,,2013-01-21 23:03:00,
2013-01-21 18:13:00,55.0,26.0,-100.00,WNW,290,6.0,14.0,32,-99.99,,,-99.99,,2013-01-21 23:13:00,
2013-01-21 18:23:00,54.0,26.0,-100.00,WNW,290,4.0,14.0,33,-99.99,,,-99.99,,2013-01-21 23:23:00,
2013-01-21 18:33:00,54.0,25.0,-100.00,NW,310,4.0,11.0,33,-99.99,,,-99.99,,2013-01-21 23:33:00,
2013-01-21 18:42:00,53.0,25.0,-100.00,NW,310,4.0,19.0,33,-99.99,,,-99.99,,2013-01-21 23:42:00,
2013-01-21 18:53:00,53.0,24.0,-100.00,WNW,285,4.0,14.0,33,-99.99,,,-99.99,,2013-01-21 23:53:00,
2013-01-21 19:03:00,52.0,24.0,-100.00,North,0,6.0,14.0,33,-99.99,,,-99.99,,2013-01-22 00:03:00,
2013-01-21 19:12:00,52.0,22.0,-100.00,NW,310,6.0,24.0,30,-99.99,,,-99.99,,2013-01-22 00:12:00,
2013-01-21 19:23:00,51.0,21.0,-100.00,NW,320,4.0,12.0,30,-99.99,,,-99.99,,2013-01-22 00:23:00,
2013-01-21 19:33:00,51.0,20.0,-100.00,West,280,6.0,14.0,29,-99.99,,,-99.99,,2013-01-22 00:33:00,
2013-01-21 19:43:00,51.0,20.0,-100.00,West,260,7.0,17.0,29,-99.99,,,-99.99,,2013-01-22 00:43:00,
2013-01-21 19:53:00,51.0,20.0,-100.00,West,260,7.0,17.0,29,-99.99,,,-99.99,,2013-01-22 00:53:00,
2013-01-21 20:02:00,50.0,19.0,-100.00,WNW,290,10.0,19.0,29,-99.99,,,-99.99,,2013-01-22 01:02:00,
2013-01-21 20:12:00,50.0,19.0,-100.00,WNW,285,11.0,21.0,29,-99.99,,,-99.99,,2013-01-22 01:12:00,
2013-01-21 20:23:00,49.0,18.0,-100.00,WNW,295,11.0,23.0,29,-99.99,,,-99.99,,2013-01-22 01:23:00,
2013-01-21 20:33:00,49.0,18.0,-100.00,WNW,295,11.0,23.0,29,-99.99,,,-99.99,,2013-01-22 01:33:00,
2013-01-21 20:43:00,49.0,19.0,-100.00,NW,305,9.0,19.0,30,-99.99,,,-99.99,,2013-01-22 01:43:00,
2013-01-21 20:52:00,49.0,19.0,-100.00,NW,305,9.0,19.0,30,-99.99,,,-99.99,,2013-01-22 01:52:00,
2013-01-21 21:03:00,48.0,18.0,-100.00,WNW,290,8.0,22.0,30,-99.99,,,-99.99,,2013-01-22 02:03:00,
2013-01-21 21:12:00,47.0,18.0,-100.00,WNW,285,10.0,23.0,30,-99.99,,,-99.99,,2013-01-22 02:12:00,
2013-01-21 21:23:00,47.0,17.0,-100.00,WNW,290,8.0,19.0,30,-99.99,,,-99.99,,2013-01-22 02:23:00,
2013-01-21 21:33:00,47.0,17.0,-100.00,West,275,9.0,19.0,30,-99.99,,,-99.99,,2013-01-22 02:33:00,
2013-01-21 21:43:00,47.0,17.0,-100.00,NNW,330,8.0,16.0,30,-99.99,,,-99.99,,2013-01-22 02:43:00,
2013-01-21 21:53:00,47.0,17.0,-100.00,WNW,300,9.0,21.0,30,-99.99,,,-99.99,,2013-01-22 02:53:00,
2013-01-21 22:03:00,46.0,17.0,-100.00,West,275,11.0,16.0,31,-99.99,,,-99.99,,2013-01-22 03:03:00,
2013-01-21 22:12:00,46.0,17.0,-100.00,WNW,300,7.0,16.0,31,-99.99,,,-99.99,,2013-01-22 03:12:00,
2013-01-21 22:22:00,45.0,17.0,-100.00,WNW,290,6.0,15.0,32,-99.99,,,-99.99,,2013-01-22 03:22:00,
2013-01-21 22:33:00,45.0,17.0,-100.00,WNW,290,6.0,13.0,32,-99.99,,,-99.99,,2013-01-22 03:33:00,
2013-01-21 22:42:00,45.0,17.0,-100.00,WNW,300,7.0,20.0,32,-99.99,,,-99.99,,2013-01-22 03:42:00,
2013-01-21 22:52:00,45.0,17.0,-100.00,WNW,300,7.0,20.0,32,-99.99,,,-99.99,,2013-01-22 03:52:00,
2013-01-21 23:03:00,44.0,16.0,-100.00,West,275,9.0,15.0,32,-99.99,,,-99.99,,2013-01-22 04:03:00,
2013-01-21 23:12:00,44.0,17.0,-100.00,NW,310,8.0,16.0,33,-99.99,,,-99.99,,2013-01-22 04:12:00,
2013-01-21 23:22:00,44.0,16.0,-100.00,West,280,10.0,21.0,33,-99.99,,,-99.99,,2013-01-22 04:22:00,
2013-01-21 23:33:00,44.0,16.0,-100.00,NW,305,8.0,18.0,33,-99.99,,,-99.99,,2013-01-22 04:33:00,
2013-01-21 23:42:00,44.0,16.0,-100.00,West,260,9.0,17.0,33,-99.99,,,-99.99,,2013-01-22 04:42:00,
2013-01-21 23:52:00,43.0,16.0,-100.00,West,270,10.0,20.0,33,-99.99,,,-99.99,,2013-01-22 04:52:00,